Página principal
METAR-TAF:

METAR-TAF

Aeroportos :

Podor, Senegal

latitude: 16-39N, longitude: 014-58W, altura: 6 m

Observação actual do tempo

O boletim foi feito há 1 hora e 45 minutos, às 21:00 UTC
Vento calmo
Temperatura 28°C
Humidade 55%
Pressão 1008 hPa
Visibilidade 10 km ou mais
sem nuvens abaixo de 1500 metros e sem cumulonimbus

METAR: GOSP 152100Z 00000KT CAVOK 28/18 Q1008

Hora: 22:45 (22:45 UTC)


TAF: em falta

Observações e previsões do tempo de mais de 4000 aeroportos (mensagens METAR e TAF).

As estações disponíveis são os pontos amarelos e vermelhos sobre o mapa.

Mova o rato sobre o mapa para ver o nome da estação.

Depois clique no ponto para visualizar as observações e previsões meteorológicas.

Para alterar o mapa : clique nos botões verdes com uma cruz preta para aumentar o zoom; no botão verde com uma pitada de zoom; ou nas setas verdes para mapas adjacentes.


METAR-TAF: